Location: Ch�tillon
(48.8024°N, 2.2935°E)
Time: 07:35:11
(UTC+00:00)

LO-87 - Pass Details

Date: 01 July 2022
Orbit: 450 x 466 km, 97.4° (Epoch: 17 August)

Event Time Altitude Azimuth Distance (km) Brightness Sun altitude
Exits shadow 23:24:32 51° 184° (S) 590 ? -17.8°
Maximum altitude 23:25:18 77° 256° (WSW) 480 ? -17.8°
Drops below altitude 10° 23:28:48 10° 344° (NNW) 1,628 ? -17.9°
Sets 23:30:52 0° 346° (NNW) 2,513 ? -17.9°
